Weather in Verkhnee Sinevidnoe

Ukraine / Lviv District     49°05′40″N   23°35′26″E
temp.,
°C
wind,
m/s
gust,
m/s
humid.,
%
clouds,
%
prec.,
mm/h
press.,
hPa
HPBL,
m
17 may, mon
mon1700:00+9ssw2397100 0.0 100895
03:00+9sw2895100 0.1 1008554
06:00+8sw228788 0.0 100844
09:00+12sse22721 0.1 1007697
12:00+17sw224724 0.0 10051765
15:00+18nne124568 0.1 10041665
18:00+15ne226951 0.3 1003548
21:00+10ese1191100 0.9 100410
18 may, tue
tue1800:00+9ssw1193100 0.1 100411
03:00+8w1198100 1.5 100415
06:00+9wnw1299100 1.6 1003181
09:00+8wnw2398100 6.1 1005285
12:00+8nw1496100 6.3 1006402
15:00+8wnw2996100 7.3 10071151
18:00+8wnw2995100 0.4 10091188
21:00+7w31094100 0.8 1010811
19 may, wed
wed1900:00+6wsw2696100 0.0 1011223
03:00+7wsw3119372 0.1 1012699
06:00+5sw2397100 0.0 101359
09:00+9w478170 0.1 1013900
12:00+12wnw456183 0.1 10121353
15:00+14w445290 0.2 10111516
18:00+13sw236876 0.4 1010904
21:00+9sw1190100 1.8 101113
20 may, thu
thu2000:00+8ssw1197100 7.0 101128
03:00+7w119790 7.8 101125
06:00+7w119799 0.7 101148
09:00+7wnw119385 1.3 1011284
12:00+8wnw2386100 0.6 1012738
15:00+9wnw2480100 0.9 1012825
18:00+8nw2582100 0.1 1013789
21:00+6wnw1397100 0.4 1015249
21 may, fri
fri2100:00+6w1298100 0.4 1015200
03:00+5w1299100 3.1 1016118
06:00+6nnw2699100 3.1 1016536
09:00+6nnw3999100 5.3 1018636
12:00+5n41196100 1.4 1020686
15:00+6nnw2894100 1.6 1020570
18:00+9ne268870 0.3 1018771
21:00+7nne2294100 0.6 101922